Regional Weather Roundup
Issued by NWS

Home | Current Version | Previous Version | Graphics & Text | Print | Product List | Glossary On
Versions: 1 2 3 4 5 6 7 8 9 10 11 12 13 14 15 16 17 18 19 20 21 22 23 24 25 26 27 28 29 30 31 32 33 34 35 36 37 38 39 40 41 42 43 44 45 46 47 48 49 50
000
ASUS45 KPSR 241600
RWRAZ

PRELIMINARY ARIZONA REGIONAL HOURLY WEATHER ROUNDUP
NATIONAL WEATHER SERVICE PHOENIX AZ
900 AM MST THU APR 24 2014

NOTE: FAIR INDICATES FEW OR NO CLOUDS BELOW 12,000 FEET WITH NO
SIGNIFICANT WEATHER AND/OR OBSTRUCTIONS TO VISIBILITY.

AZZ001>003-036-241700-
NORTHWEST ARIZONA

CITY           SKY/WX    TMP DP  RH WIND       PRES   REMARKS
KINGMAN        SUNNY     66   9  10 NW6       30.02S
$$

AZZ004>008-015-016-018-241700-
NORTH CENTRAL ARIZONA

CITY           SKY/WX    TMP DP  RH WIND       PRES   REMARKS
GRAND CANYON   SUNNY     54  11  18 S8        30.16R
WILLIAMS       SUNNY     55   9  15 SE7       30.21S
PRESCOTT       SUNNY     57  12  17 CALM      30.09S
FLAGSTAFF      SUNNY     51  11  20 NE8       30.17S
PAYSON         SUNNY     63  10  13 VRB3      30.11S
PAGE           SUNNY     56  13  18 N5        30.12S
$$

AZZ009>014-017-241700-
NORTHEAST ARIZONA

CITY           SKY/WX    TMP DP  RH WIND       PRES   REMARKS
WINSLOW        NOT AVBL
SAINT JOHNS    SUNNY     56  12  17 E9        30.15F
WINDOW ROCK    SUNNY     50  12  21 CALM      30.20R
SHOW LOW       SUNNY     55   9  15 NE9       30.17F
$$

AZZ023-241700-
GREATER PHOENIX AREA

CITY           SKY/WX    TMP DP  RH WIND       PRES   REMARKS
PHOENIX        MOSUNNY   73  20  13 SE9       29.94S
BUCKEYE          N/A     72  25  17 E6        29.96R
GLENDALE       MOSUNNY   72  27  18 CALM      29.97R
DEER VALLEY    SUNNY     72  15  11 SE7       29.96R
SCOTTSDALE     SUNNY     73  26  17 S6        29.97R
MESA-GATEWAY   MOSUNNY   73  21  14 SE6       29.97S
CHANDLER       MOSUNNY   70  21  16 CALM      29.96S
$$

AZZ027-028-241700-
SOUTHWEST MARICOPA COUNTY AND PINAL COUNTY

CITY           SKY/WX    TMP DP  RH WIND       PRES   REMARKS
CASA GRANDE    SUNNY     68  23  18 CALM      29.97S
$$

AZZ503-504-507>509-241700-
SOUTHEAST ARIZONA

CITY           SKY/WX    TMP DP  RH WIND       PRES   REMARKS
TUCSON         SUNNY     70  14  11 VRB5      30.03F
RYAN FIELD       N/A     70  21  16 E3        30.03
NOGALES        SUNNY     66  18  15 VRB3      30.06S
SIERRA VISTA   MOSUNNY   66  12  12 VRB3      30.10R
SAFFORD        SUNNY     69  12  11 VRB3      30.04S
$$

AZZ020-021-025-026-031-241700-
SOUTHWEST ARIZONA

CITY           SKY/WX    TMP DP  RH WIND       PRES   REMARKS
YUMA           MOSUNNY   73  25  16 CALM      29.92R
$$

CAZ031-033-041-043-047-048-061-241700-
SOUTHERN CALIFORNIA

CITY           SKY/WX    TMP DP  RH WIND       PRES   REMARKS
DOWNTOWN L.A.  SUNNY     66  50  56 CALM      29.99R
L.A. AIRPORT   MOSUNNY   66  52  60 CALM      30.00R
SAN DIEGO      MOSUNNY   63  53  70 VRB3      30.01R
BURBANK        SUNNY     63  41  44 CALM      29.99R
ONTARIO        MOSUNNY   64  40  41 CALM      29.98S
RIVERSIDE      SUNNY     62  41  46 VRB3      29.99S
PALM SPRINGS   SUNNY     76  29  17 CALM      29.94S
EL CENTRO NAS  MOSUNNY   76  41  28 NW6       29.91R
IMPERIAL       SUNNY     73  49  42 NW6       29.90S
BLYTHE         SUNNY     73  17  12 CALM      29.93R
$$

NVZ020-UTZ003-241700-
SOUTHERN NEVADA-UTAH

CITY           SKY/WX    TMP DP  RH WIND       PRES   REMARKS
LAS VEGAS      NOT AVBL
SALT LAKE CITY PTSUNNY   50  24  36 SE16      30.06S
$$

NMZ009-TXZ055-241700-
NEW MEXICO-WEST TEXAS

CITY           SKY/WX    TMP DP  RH WIND       PRES   REMARKS
ALBUQUERQUE    MOSUNNY   55   9  16 NW10      30.16S
EL PASO        MOSUNNY   68  13  12 N10       30.09S
$$


........................KEY........................
SKY/WX - SKY CONDITION/WEATHER
TMP    - TEMPERATURE IN FAHRENHEIT
DP     - DEW POINT IN FAHRENHEIT
RH     - RELATIVE HUMIDITY IN PERCENT
WIND   - DIRECTION AND SPEED IN MILES PER HOUR (MPH)
VRB    - VARIABLE WIND DIRECTION
PRES   - MEAN SEA LEVEL PRESSURE IN INCHES OF MERCURY
         F - FALLING PRESSURE   R - RISING PRESSURE
         S - STEADY PRESSURE
VSB    - VISIBILITY IN MILES
HX     - HEAT INDEX IN FAHRENHEIT
WCI    - WIND CHILL INDEX IN FAHRENHEIT
TC     - TEMPERATURE IN CELSIUS WHICH IS ALSO KNOWN AS
         TEMPERATURE IN CENTIGRADE
AFB    - AIR FORCE BASE
         LUKE AFB IS LUKE AIR FORCE BASE
         DAVIS-MONTHAN IS DAVIS-MONTHAN AIR FORCE BASE
NAS    - NAVAL AIR STATION
         EL CENTRO NAS IS EL CENTRO NAVAL AIR STATION
N/A    - NOT AVAILABLE



USA.gov is the U.S. government's official web portal to all federal, state and local government web resources and services.